This demonstration page uses our WeatherBlox Daily Observations layout. Learn more.

Left ArrowRight Arrow

38.80484, -77.04692

Hourly Observations for October 22, 2020

Temp ( °F °C ) Dew Point ( °F °C ) Humidity (%) Winds ( mph kmh ) Pressure ( in mb ) Visibility ( mi km ) Precip ( " mm )
12:52 am 00:52 Clear 66 18.9 65 18.3 96 96 SSW 3 6 30.22 1024 8 13 0.00 0.00
1:52 am 01:52 Clear 64 17.8 64 17.8 100 100 S 5 7 30.22 1023 8 13 0.00 0.00
2:52 am 02:52 Clear 64 17.8 63 17.2 96 96 SSW 5 7 30.21 1023 9 14 0.00 0.00
3:52 am 03:52 Clear with Mist and Fog 63 17.2 62 16.7 97 97 SSW 3 6 30.20 1023 5 8 0.00 0.00
4:29 am 04:29 Mostly Clear with Mist and Fog 63 17.2 62 16.7 97 97 Calm 30.21 1023 2 2 0.00 0.00
4:32 am 04:32 Mostly Cloudy with Mist and Fog 62 16.7 61 16.1 96 96 Calm 30.21 1023 1 1 0.00 0.00
4:41 am 04:41 Mostly Clear with Mist and Fog 62 16.7 61 16.1 96 96 Calm 30.21 1023 6 10 0.00 0.00
4:52 am 04:52 Mostly Clear with Mist and Fog 62 16.7 62 16.7 100 100 Calm 30.21 1023 6 10 0.00 0.00
5:52 am 05:52 Partly Cloudy with Mist and Fog 61 16.1 60 15.6 97 97 NE 5 7 30.21 1023 4 6 0.00 0.00
6:33 am 06:33 Cloudy with Mist and Fog 63 17.2 62 16.7 97 97 Calm 30.22 1023 5 8 0.00 0.00
6:52 am 06:52 Cloudy with Mist and Fog 62 16.7 62 16.7 100 100 NE 5 7 30.22 1024 6 10 0.00 0.00
7:15 am 07:15 Cloudy with Mist and Fog 62 16.7 61 16.1 96 96 NE 6 9 30.23 1024 3 4 0.00 0.00
7:22 am 07:22 Cloudy with Mist and Fog 62 16.7 61 16.1 96 96 ENE 6 9 30.23 1024 1 2 0.00 0.00
7:30 am 07:30 Cloudy with Fog 62 16.7 61 16.1 96 96 ENE 6 9 30.23 1024 1 1 0.00 0.00
7:47 am 07:47 Mostly Cloudy with Fog 63 17 63 17 100 100 ENE 5 7 30.23 1024 1 2 0.00 0.00
7:52 am 07:52 Mostly Cloudy with Fog 62 16.7 62 16.7 100 100 ENE 5 7 30.23 1024 1 2 0.00 0.00
8:32 am 08:32 Mostly Cloudy with Fog 63 17.2 63 17.2 100 100 NE 3 6 30.25 1024 1 2 0.00 0.00
8:52 am 08:52 Mostly Cloudy with Fog 63 17.2 63 17.2 100 100 Calm 30.25 1024 1 2 0.00 0.00
9:27 am 09:27 Mostly Cloudy with Fog 64 17.8 64 17.8 100 100 S 3 6 30.26 1025 1 2 0.00 0.00
9:48 am 09:48 Mostly Cloudy with Fog 64 18 64 18 100 100 SSW 5 7 30.26 1025 1 2 0.00 0.00
9:52 am 09:52 Mostly Cloudy with Fog 65 18.3 64 17.8 97 97 SSW 6 9 30.25 1025 0 0 0.00 0.00
10:15 am 10:15 Cloudy with Mist and Fog 64 17.8 64 17.8 100 100 S 8 13 30.25 1024 1 1 0.00 0.00
10:52 am 10:52 Mostly Cloudy with Mist and Fog 66 18.9 65 18.3 96 96 VRB 3 6 30.25 1024 1 2 0.00 0.00
10:57 am 10:57 Mostly Cloudy with Mist and Fog 66 18.9 65 18.3 96 96 S 3 6 30.25 1024 2 3 0.00 0.00
11:07 am 11:07 Mostly Cloudy with Mist and Fog 67 19.4 65 18.3 93 93 VRB 3 6 30.25 1024 3 5 0.00 0.00
11:25 am 11:25 Partly Cloudy with Mist and Fog 68 20 66 18.9 93 93 Calm 30.25 1024 6 10 0.00 0.00
11:52 am 11:52 Mostly Sunny 71 21.7 66 18.9 84 84 NE 3 6 30.25 1024 8 13 0.00 0.00
12:52 pm 12:52 Mostly Sunny 73 22.8 66 18.9 79 79 NE 3 6 30.23 1024 10 16 0.00 0.00
1:52 pm 13:52 Mostly Sunny 77 25 66 18.9 69 69 ESE 3 6 30.21 1023 10 16 0.00 0.00
2:52 pm 14:52 Partly Cloudy 80 26.7 65 18.3 60 60 S 6 9 30.19 1022 10 16 0.00 0.00
3:52 pm 15:52 Partly Cloudy 80 26.7 65 18.3 60 60 SSE 8 13 30.18 1022 10 16 0.00 0.00
4:52 pm 16:52 Mostly Sunny 79 26.1 63 17.2 58 58 S 8 13 30.17 1022 10 16 0.00 0.00
5:52 pm 17:52 Mostly Sunny 76 24.4 62 16.7 62 62 S 7 11 30.17 1022 10 16 0.00 0.00
6:52 pm 18:52 Mostly Clear 72 22.2 62 16.7 71 71 S 8 13 30.18 1022 10 16 0.00 0.00
7:52 pm 19:52 Clear 71 21.7 62 16.7 73 73 S 7 11 30.20 1023 10 16 0.00 0.00
8:52 pm 20:52 Clear 69 20.6 62 16.7 78 78 S 7 11 30.20 1023 10 16 0.00 0.00
9:52 pm 21:52 Clear 69 20.6 62 16.7 78 78 S 6 9 30.21 1023 10 16 0.00 0.00
10:52 pm 22:52 Clear 68 20 63 17.2 84 84 S 5 7 30.21 1023 10 16 0.00 0.00
11:52 pm 23:52 Clear 67 19.4 63 17.2 87 87 S 6 9 30.20 1023 10 16 0.00 0.00

Powered by AerisWeather